Regional Weather Roundup
Issued by NWS

Home | Current Version | Previous Version | Text Only | Print | Product List | Glossary On
Versions: 1 2 3 4 5 6 7 8 9 10 11 12 13 14 15 16 17 18 19 20 21 22 23 24 25 26 27 28 29 30 31 32 33 34 35 36 37 38 39 40 41 42 43 44 45 46 47 48 49 50
957
ASUS44 KFWD 201203
RWRTX
NORTH TEXAS HOURLY WEATHER ROUNDUP
NATIONAL WEATHER SERVICE FORT WORTH TX
600 AM CST SAT JAN 20 2018

NOTE: "FAIR" INDICATES FEW OR NO CLOUDS BELOW 12,000 FEET WITH NO
SIGNIFICANT WEATHER AND/OR OBSTRUCTIONS TO VISIBILITY.

TXZ118-119-201300-
DALLAS/FORT WORTH METROPLEX

CITY           SKY/WX    TMP DP  RH WIND       PRES   REMARKS
DFW AIRPORT    CLOUDY    57  51  80 S22G30    29.96R
6HR MIN TEMP:  53; 6HR MAX TEMP:  57; 6HR PCP:  0.03;

DALLAS LOVE    CLOUDY    57  51  80 S12G22    29.98R
6HR MIN TEMP:  51; 6HR MAX TEMP:  57; 6HR PCP:  0.01;

FTW MEACHAM    CLOUDY    54  50  86 S14G28    29.96S
6HR MIN TEMP:  53; 6HR MAX TEMP:  55;

DAL-EXECUTIVE  CLOUDY    57  52  83 S15G26    29.96S
6HR MIN TEMP:  51; 6HR MAX TEMP:  57; 6HR PCP: TRACE;

FTW-ALLIANCE   CLOUDY    53  49  86 S8        29.95S
6HR MIN TEMP:  52; 6HR MAX TEMP:  54;

FTW-NAS-JRB    CLOUDY    53  47  79 S13       29.97S
6HR MIN TEMP:  51; 6HR MAX TEMP:  54;

FTW-SPINKS     CLOUDY    54  48  82 S15G23    29.98S
6HR MIN TEMP:  52; 6HR MAX TEMP:  54;

ARLINGTON      CLOUDY    55  51  86 S10G21    29.97S
6HR MIN TEMP:  51; 6HR MAX TEMP:  55;

GRAND PRAIRIE  CLOUDY    55  51  85 S13G18    29.99S
6HR MIN TEMP:  51; 6HR MAX TEMP:  55;

MESQUITE       CLOUDY    55  53  92 S18       29.99F
6HR MIN TEMP:  51; 6HR MAX TEMP:  55;

LANCASTER      CLOUDY    55  53  92 S13G20    30.00S
6HR MIN TEMP:  50; 6HR MAX TEMP:  55;

$$

TXZ091>094-102>105-117-120-121-131>134-201300-
NORTH CENTRAL TEXAS

CITY           SKY/WX    TMP DP  RH WIND       PRES   REMARKS
SHRMAN/DENISON CLOUDY    54  50  86 S24G33    29.96S
6HR MIN TEMP:  49; 6HR MAX TEMP:  54;

GAINESVILLE    CLOUDY    52  48  87 S13G22    29.95F
6HR MIN TEMP:  50; 6HR MAX TEMP:  52;

BOWIE          CLOUDY    50  47  90 S9G18     29.91S
6HR MIN TEMP:  50; 6HR MAX TEMP:  52;

BRIDGEPORT     MOCLDY    51  47  87 S12       29.95S
6HR MIN TEMP:  51; 6HR MAX TEMP:  53;

DECATUR        MOCLDY    51  47  87 S14G21    29.93S
6HR MIN TEMP:  50; 6HR MAX TEMP:  52;

DENTON         CLOUDY    53  49  86 S18       29.97R
6HR MIN TEMP:  52; 6HR MAX TEMP:  53;

MCKINNEY       CLOUDY    55  54  96 S17       29.96F
6HR MIN TEMP:  49; 6HR MAX TEMP:  56;

BONHAM         CLOUDY    53  52  94 S20       29.97S
6HR MIN TEMP:  49; 6HR MAX TEMP:  53;

ROCKWALL       CLOUDY    56  55  99 S20G29    29.99S
6HR MIN TEMP:  51; 6HR MAX TEMP:  56;

TERRELL        CLOUDY    54  53  97 S10       30.01S FOG
6HR MIN TEMP:  53; 6HR MAX TEMP:  55; 6HR PCP: TRACE;

WAXAHACHIE     CLOUDY    55  54  98 S22       29.99F
6HR MIN TEMP:  49; 6HR MAX TEMP:  55;

CLEBURNE       CLOUDY    52  52 100 S16G23    29.99S
GRANBURY       CLOUDY    52  47  83 S9        29.98S
6HR MIN TEMP:  52; 6HR MAX TEMP:  54;

$$

TXZ083>090-098>101-113>116-127>130-139>142-154-155-201300-
WESTERN NORTH TEXAS

CITY           SKY/WX    TMP DP  RH WIND       PRES   REMARKS
WICHITA FALLS  FAIR      46  44  93 S13       29.87S
6HR MIN TEMP:  46; 6HR MAX TEMP:  50;

WF-KICKAPOO    FAIR      46  45  95 S9        29.90S
6HR MIN TEMP:  46; 6HR MAX TEMP:  50;

VERNON         FAIR      45  40  82 S14       29.84S WCI  38
6HR MIN TEMP:  45; 6HR MAX TEMP:  60;

ABILENE        FAIR      42  41  96 S13       29.90F WCI  35
6HR MIN TEMP:  42; 6HR MAX TEMP:  47;

ABILENE-DYESS  FAIR      43  41  94 S17       29.89F WCI  35
6HR MIN TEMP:  43; 6HR MAX TEMP:  49;

GRAHAM           N/A     48  50 100 SE7       29.90R
6HR MIN TEMP:  48; 6HR MAX TEMP:  52;

BRECKENRIDGE   FAIR      49  46  92 S15       29.91S
6HR MIN TEMP:  49; 6HR MAX TEMP:  53;

CISCO          MOCLDY    46  45  93 S17G24    29.93R WCI  39
EASTLAND       MOCLDY    47  44  90 S13       29.94R
6HR MIN TEMP:  47; 6HR MAX TEMP:  52;

RANGER         FAIR      46  45  93 S14       29.94S
MINERAL WELLS  MOCLDY    49  46  90 SE8       29.93S
6HR MIN TEMP:  49; 6HR MAX TEMP:  52;

STEPHENVILLE   CLOUDY    49  46  87 S10       29.98S
6HR MIN TEMP:  49; 6HR MAX TEMP:  51;

COMANCHE       FAIR      47  47 100 S8        29.96S
6HR MIN TEMP:  46; 6HR MAX TEMP:  52;

BROWNWOOD      FAIR      46  45  93 S6        29.98R
COLEMAN        FAIR      43  42  97 SW9       29.96S FOG     WCI  37
6HR MIN TEMP:  43; 6HR MAX TEMP:  50;

$$

TXZ143>147-156>162-174-175-201300-
CENTRAL TEXAS

CITY           SKY/WX    TMP DP  RH WIND       PRES   REMARKS
WACO           CLOUDY    55  52  89 S12G20    30.01F
6HR MIN TEMP:  52; 6HR MAX TEMP:  55;

WACO-MCGREGOR  CLOUDY    54  52  93 S10       30.01S
6HR MIN TEMP:  53; 6HR MAX TEMP:  55;

CORSICANA      CLOUDY    55  55 100 S10       30.02F FOG
6HR MIN TEMP:  55; 6HR MAX TEMP:  56; 6HR PCP: TRACE;

MEXIA          CLOUDY    55  54  97 S9G16     30.02S FOG
6HR MIN TEMP:  54; 6HR MAX TEMP:  55;

HEARNE         FOG       54  54 100 SE5       30.05S VSB 1
6HR MIN TEMP:  54; 6HR MAX TEMP:  54; 6HR PCP:  0.01;

CAMERON        CLOUDY    55  54  95 S8        30.04S FOG
6HR MIN TEMP:  55; 6HR MAX TEMP:  57;

TEMPLE         CLOUDY    53  53 100 S9        30.02S FOG
6HR MIN TEMP:  53; 6HR MAX TEMP:  54;

KILLEEN        CLOUDY    53  51  93 S8        29.99S
6HR MIN TEMP:  50; 6HR MAX TEMP:  53;

KILLEEN-SKYLRK CLOUDY    54  52  93 S13       30.01S
6HR MIN TEMP:  51; 6HR MAX TEMP:  54; 6HR PCP: TRACE;

FORT HOOD      CLOUDY    53  51  94 S9        29.98S
6HR MIN TEMP:  49; 6HR MAX TEMP:  53;

GATESVILLE     FAIR      52  50  93 S6G12     30.01F
HAMILTON       FAIR      48  48 100 S12       29.98F
LAMPASAS       FAIR      48  46  91 S5        29.98F
6HR MIN TEMP:  48; 6HR MAX TEMP:  51;

$$

TXZ095>097-106>112-122>126-135>138-148>153-164>167-201300-
EAST TEXAS

CITY           SKY/WX    TMP DP  RH WIND       PRES   REMARKS
PARIS          CLOUDY    52  51  97 SE12      30.01F
6HR MIN TEMP:  44; 6HR MAX TEMP:  52;

SULPHUR SPRNGS CLOUDY    55  54  97 S9        30.03S FOG
6HR MIN TEMP:  51; 6HR MAX TEMP:  55;

MOUNT PLEASANT CLOUDY    51  46  86 SE8       30.06S
6HR MIN TEMP:  50; 6HR MAX TEMP:  53;

GILMER         CLOUDY    52  50  94 S5        30.06S
6HR MIN TEMP:  51; 6HR MAX TEMP:  53;

MINEOLA        CLOUDY    55  54  94 S7        30.04S
TYLER          CLOUDY    54  53  97 S10       30.04S FOG
6HR MIN TEMP:  53; 6HR MAX TEMP:  54; 6HR PCP: TRACE;

LONGVIEW       CLOUDY    52  51  97 SE9       30.07R FOG
6HR MIN TEMP:  49; 6HR MAX TEMP:  53;

MARSHALL       CLOUDY    48  43  84 S8        30.11S
6HR MIN TEMP:  48; 6HR MAX TEMP:  50;

ATHENS         CLOUDY    50  50 100 S8        30.03S FOG
PALESTINE      FOG       53  53 100 SE7       30.07R VSB 1
JACKSONVILLE   FOG       51  51 100 S7        30.08S VSB 1/2
CENTER         CLOUDY    49  44  80 SE3       30.12R
6HR MIN TEMP:  49; 6HR MAX TEMP:  50;

NACOGDOCHES    CLOUDY    49  46  90 SE8       30.10S
6HR MIN TEMP:  49; 6HR MAX TEMP:  51; 6HR PCP: TRACE;

LUFKIN         LGT RAIN  49  48  97 SE6       30.09S
6HR MIN TEMP:  49; 6HR MAX TEMP:  52; 6HR PCP:  0.01;

$$

SUPPLEMENTAL OBSERVATIONS (NWS FORT WORTH AREA)

CITY           SKY/WX    TMP DP  RH WIND       PRES   REMARKS
$$

SUPPLEMENTAL OBSERVATIONS (NWS NORMAN AREA)

CITY           SKY/WX    TMP DP  RH WIND       PRES   REMARKS
$$

SUPPLEMENTAL OBSERVATIONS (NWS SAN ANGELO AREA)

CITY           SKY/WX    TMP DP  RH WIND       PRES   REMARKS
$$

SUPPLEMENTAL OBSERVATIONS (NWS SHREVEPORT AREA)

CITY           SKY/WX    TMP DP  RH WIND       PRES   REMAR



USA.gov is the U.S. government's official web portal to all federal, state and local government web resources and services.